Location: Spring Creek
(38.2870°N, 100.2160°W)
Time: 04:00:30
(UTC+00:00)

Cosmos 1626 - Pass Details

Date: 08 May 2021
Orbit: 490 x 492 km, 82.5° (Epoch: 22 June)

Event Time Altitude Azimuth Distance (km) Brightness Sun altitude
Exits shadow 09:22:13 47° 122° (ESE) 659 2.7 -22.4°
Maximum altitude 09:22:40 51° 94° (E) 627 2.7 -22.3°
Drops below altitude 10° 09:26:16 10° 18° (NNE) 1,691 5.7 -21.8°
Sets 09:28:25 0° 13° (NNE) 2,577 6.7 -21.5°
